Wind_Speed
18 17 17 16 16 15 15 15 15 15 15 15 15 15 15 14 14 13 13 13 14 14 14 14 14 14 15 15 15 14 15 15 15 15 15 16 17 17 17 17 17 17 17
19 18 18 17 17 16 16 16 16 16 15 15 15 15 15 14 14 14 14 14 14 14 15 15 14 15 15 15 14 15 15 15 16 16 16 16 16 16 16 16 16 16 17
19 19 19 18 18 18 17 17 17 16 16 16 16 15 15 15 15 15 15 15 15 15 15 15 15 15 15 15 15 15 16 16 16 15 15 15 16 16 16 16 16 16 17
20 20 20 20 19 19 18 18 18 18 18 18 17 16 16 16 16 16 16 16 16 16 16 16 16 16 15 15 15 16 16 16 16 16 16 16 16 16 17 16 17 17 17
20 20 21 20 20 20 20 20 19 19 19 19 18 18 17 17 17 17 17 17 16 16 16 16 16 16 16 16 16 17 17 17 17 16 17 17 17 17 17 17 18 18 18
20 20 21 20 21 21 21 21 21 21 20 20 20 19 18 18 18 18 18 17 17 17 17 17 16 16 16 17 17 17 17 17 17 17 17 17 17 17 18 18 18 18 19
21 21 21 21 21 21 22 22 21 21 21 21 20 20 19 19 19 19 19 18 18 18 18 17 17 17 17 17 18 18 18 18 18 18 17 17 18 18 19 19 19 19 20
22 22 21 22 22 21 21 21 22 22 22 22 21 21 20 20 20 19 19 19 19 19 19 18 18 17 17 17 18 18 18 19 19 19 19 18 18 19 19 19 19 20 20
21 22 23 22 21 21 21 21 22 22 22 22 22 21 21 21 21 20 20 20 19 20 20 19 19 19 18 18 18 18 19 19 19 20 20 19 20 20 20 21 21 22 22
21 22 23 23 22 21 21 21 21 21 21 21 21 22 22 21 21 20 20 20 20 20 20 20 20 20 19 19 19 19 20 20 20 20 20 20 20 21 21 22 22 23 23
22 22 22 22 23 23 22 22 22 22 21 21 21 21 21 21 21 20 20 21 21 21 21 21 21 20 20 20 20 20 20 21 20 20 20 21 21 22 22 23 23 23 23
23 23 23 23 23 23 23 23 22 22 22 21 21 21 21 21 21 21 21 22 22 22 22 22 21 21 21 20 20 21 21 21 20 20 21 22 22 23 23 23 23 22 22
24 23 23 24 24 23 23 23 22 22 22 22 22 21 21 21 21 21 22 22 22 22 22 22 21 21 21 21 21 21 21 21 21 21 22 22 22 23 23 23 23 22 22
24 24 24 24 24 24 23 24 24 24 24 23 24 23 22 22 22 22 22 22 22 22 23 23 23 22 22 21 21 21 21 21 21 21 22 22 22 23 23 23 23 23 23
25 26 25 25 25 25 25 26 25 25 25 25 24 24 24 23 24 23 23 23 23 23 23 23 23 23 22 21 21 21 21 21 21 21 21 22 22 21 21 21 21 22 22
25 26 27 26 26 26 27 27 27 27 27 26 26 25 25 25 25 25 25 24 23 23 22 22 22 22 22 22 21 21 21 21 21 21 21 21 20 20 20 21 21 21 21
27 28 28 28 28 28 28 28 28 28 28 28 28 27 27 27 27 27 26 25 24 23 22 22 22 23 22 22 22 21 21 20 20 21 20 20 20 20 20 20 21 21 21
28 29 29 29 29 28 28 28 28 29 29 29 30 29 29 29 29 29 28 26 25 24 23 22 22 22 22 21 21 22 22 21 20 20 20 20 21 21 22 22 22 22 21
29 29 29 29 29 29 28 29 29 29 29 29 30 30 30 31 31 30 29 27 26 25 24 23 23 23 22 21 21 22 22 22 21 21 22 22 22 23 23 24 23 23 23
28 28 28 28 28 27 28 29 30 30 30 29 29 29 29 29 28 28 28 27 26 25 25 24 23 23 23 23 22 22 22 23 22 22 23 23 23 23 23 23 24 23 23
26 26 27 28 28 27 27 27 28 28 29 29 29 29 28 28 28 27 27 27 27 26 26 26 25 24 24 24 23 23 23 23 24 23 23 23 23 23 24 24 23 23 23
25 25 26 27 28 28 28 27 27 27 27 26 27 27 27 27 28 28 27 27 27 28 28 27 26 25 25 25 25 24 24 24 24 24 24 24 24 25 25 24 24 24 23
24 24 25 27 27 27 27 26 26 26 26 26 26 25 26 27 27 27 27 28 28 28 29 29 28 27 27 27 27 26 26 26 25 25 25 25 25 25 25 25 25 25 24
24 24 24 25 25 24 24 24 24 25 25 25 25 25 25 26 26 27 27 28 28 29 29 28 28 28 28 28 27 27 27 27 27 27 27 27 26 26 26 25 25 25 24
22 23 23 24 24 24 23 23 23 23 24 23 24 24 24 25 26 27 28 28 28 28 29 29 29 29 29 30 29 29 29 29 29 28 28 28 27 26 26 25 25 25 25
22 22 22 23 24 24 24 24 24 24 24 23 23 23 24 24 25 26 27 27 27 28 29 29 30 30 30 30 30 29 29 30 30 29 29 29 28 27 27 26 26 26 26
Wind_Direction
253 250 249 252 254 254 253 252 250 249 251 253 257 259 260 263 266 267 272 276 276 276 277 278 276 276 276 272 271 271 270 271 273 275 276 277 278 278 276 272 271 272 274
254 251 253 253 253 252 252 251 249 250 251 253 257 259 258 259 262 264 268 272 276 277 277 277 277 276 277 274 271 271 272 272 274 276 278 279 280 279 277 271 269 271 272
256 255 255 254 253 252 251 251 250 251 252 253 256 257 257 256 260 264 267 272 275 277 277 278 278 276 275 274 272 273 273 274 274 276 277 279 281 279 279 275 273 272 273
258 257 256 256 253 251 251 250 250 252 253 253 254 255 256 257 262 266 268 272 274 275 276 277 278 278 273 272 272 273 274 273 274 275 275 278 279 279 279 275 274 275 277
257 257 257 256 253 251 251 251 253 254 253 253 254 255 256 258 261 266 269 271 272 274 275 277 280 278 274 273 272 272 272 272 274 275 277 279 279 277 277 277 278 279 280
255 256 255 255 254 253 253 252 254 253 251 253 254 254 256 257 259 263 268 268 270 272 275 279 280 278 273 271 271 272 273 272 273 275 278 279 278 279 278 279 279 280 282
254 255 255 255 257 253 252 251 250 251 251 251 253 254 256 257 259 262 264 267 269 270 274 277 280 279 274 271 270 272 272 273 275 275 277 276 277 278 278 280 280 283 284
255 255 256 255 257 254 253 252 251 250 250 251 253 255 256 256 259 262 263 266 266 268 272 274 278 277 275 274 272 273 274 275 274 274 274 274 276 278 279 281 281 283 285
256 255 256 257 258 256 253 252 251 249 250 250 252 254 255 257 259 261 263 265 266 270 272 273 276 276 274 275 275 275 274 274 274 274 274 273 274 278 280 281 281 283 285
258 256 254 256 257 258 256 252 250 250 252 251 253 254 255 257 259 260 261 264 266 270 273 274 275 275 275 276 276 277 275 274 276 275 274 274 274 278 280 282 282 282 284
257 257 254 254 255 255 255 253 250 251 251 252 254 255 255 257 257 259 262 264 266 271 274 274 274 273 273 275 275 276 276 274 274 273 272 272 274 278 281 282 282 282 284
257 256 254 253 253 252 252 252 253 252 251 252 253 254 256 258 259 261 263 265 267 270 273 275 274 272 272 273 274 275 277 277 274 272 272 272 274 276 279 281 280 280 282
257 257 255 252 251 249 249 250 251 251 252 254 255 255 257 260 261 262 264 266 270 271 273 273 273 272 272 273 275 276 277 276 274 274 273 274 273 274 277 279 278 278 279
255 255 254 251 249 248 247 248 250 251 252 254 256 256 257 260 261 262 264 267 270 272 272 271 271 271 272 273 274 275 276 276 274 274 273 273 273 273 275 277 277 278 279
254 254 254 252 250 248 247 247 249 250 252 254 255 257 259 260 262 263 264 267 269 271 272 271 270 269 270 271 273 273 274 276 276 276 274 272 272 273 275 278 280 281 281
254 253 252 251 250 249 248 248 248 249 251 251 254 257 257 258 258 260 263 266 269 271 272 271 270 269 269 268 271 273 273 275 276 275 275 274 273 273 273 275 279 281 282
255 254 252 250 249 249 249 249 248 248 249 252 253 255 256 257 257 259 261 263 265 269 271 270 270 269 268 268 269 270 271 273 273 274 274 274 274 274 274 275 278 281 285
255 254 253 250 248 248 248 248 248 250 251 252 253 255 255 257 257 258 259 261 263 266 268 268 269 269 269 269 268 269 270 271 272 272 271 272 274 275 276 276 278 280 283
259 257 253 249 248 248 249 248 249 251 251 253 254 255 256 257 257 257 259 261 262 263 266 267 268 268 269 270 270 270 269 269 270 269 270 272 273 274 275 276 277 278 281
259 256 252 250 248 249 249 249 250 251 252 254 255 255 257 259 260 260 261 261 262 262 264 266 266 266 267 269 271 271 269 268 270 271 272 272 273 275 276 277 277 278 280
258 254 252 251 250 249 250 250 251 253 253 255 255 255 256 258 259 258 258 259 261 263 263 263 263 266 267 266 267 268 269 269 269 270 271 271 273 276 279 280 278 278 279
257 254 251 250 248 247 248 249 251 254 255 256 257 256 255 256 256 256 257 259 260 261 263 263 262 263 265 266 266 266 267 269 269 270 271 272 274 275 277 277 275 275 278
254 252 252 249 246 246 247 250 253 255 256 256 257 257 256 257 258 258 260 260 260 261 263 265 264 263 263 264 264 264 265 268 269 270 270 272 274 275 275 274 275 274 275
252 250 248 246 244 245 247 250 253 254 254 255 257 258 259 257 258 259 260 261 261 263 264 264 264 264 264 265 265 265 266 268 269 269 270 271 273 274 273 273 274 274 276
251 248 247 246 245 246 248 250 253 254 255 255 258 259 259 259 259 260 261 262 263 263 263 264 265 265 265 265 266 266 266 267 268 269 268 269 271 273 274 273 274 275 276
249 248 247 248 248 250 252 254 256 257 257 256 258 261 261 262 263 265 265 265 264 264 265 266 266 266 266 266 266 266 266 267 268 268 268 268 268 270 272 273 275 276 275
Height
5813 5814 5815 5815 5816 5817 5817 5818 5819 5819 5820 5821 5821 5822 5822 5823 5823 5824 5824 5824 5824 5823 5823 5822 5822 5821 5820 5820 5820 5820 5820 5820 5820 5819 5819 5818 5818 5817 5817 5816 5816 5815 5815
5809 5810 5810 5811 5812 5812 5813 5814 5814 5815 5816 5817 5818 5818 5819 5819 5820 5820 5820 5820 5820 5819 5819 5818 5818 5817 5817 5816 5816 5816 5816 5815 5815 5815 5814 5814 5813 5813 5812 5812 5811 5811 5810
5804 5805 5806 5806 5807 5808 5809 5809 5810 5811 5812 5813 5814 5814 5815 5815 5816 5816 5816 5816 5816 5815 5815 5814 5813 5813 5813 5812 5812 5812 5811 5811 5811 5810 5810 5809 5809 5808 5808 5807 5807 5807 5806
5799 5800 5800 5801 5802 5803 5804 5805 5806 5807 5808 5809 5809 5810 5811 5811 5812 5812 5812 5812 5811 5811 5810 5810 5809 5809 5808 5808 5808 5808 5807 5807 5806 5806 5806 5805 5804 5804 5803 5803 5802 5802 5801
5793 5794 5795 5796 5797 5798 5799 5800 5801 5802 5803 5804 5805 5806 5806 5807 5807 5808 5807 5807 5807 5806 5806 5805 5805 5804 5804 5804 5803 5803 5803 5802 5802 5802 5801 5800 5800 5799 5799 5798 5798 5797 5796
5788 5789 5790 5790 5791 5792 5793 5795 5796 5797 5798 5799 5800 5801 5802 5802 5803 5803 5803 5802 5802 5802 5801 5801 5800 5799 5799 5799 5798 5798 5798 5798 5797 5797 5796 5796 5795 5794 5794 5793 5793 5792 5791
5782 5783 5784 5785 5786 5786 5788 5789 5790 5791 5792 5794 5795 5796 5796 5797 5798 5798 5798 5798 5797 5797 5796 5796 5795 5794 5794 5794 5793 5793 5793 5792 5792 5792 5791 5791 5790 5789 5789 5788 5787 5787 5786
5777 5777 5778 5779 5780 5780 5782 5783 5784 5785 5786 5788 5789 5790 5791 5792 5792 5793 5793 5792 5792 5792 5791 5791 5790 5789 5789 5788 5788 5788 5788 5787 5787 5787 5786 5786 5785 5784 5783 5783 5782 5781 5780
5771 5771 5772 5773 5774 5775 5776 5777 5778 5779 5780 5782 5783 5784 5785 5786 5787 5787 5787 5787 5787 5787 5786 5785 5785 5784 5784 5783 5783 5782 5782 5782 5781 5781 5781 5780 5780 5779 5778 5777 5776 5775 5774
5764 5765 5766 5767 5768 5769 5770 5771 5772 5773 5774 5776 5777 5778 5779 5780 5781 5781 5781 5781 5781 5781 5780 5780 5779 5779 5778 5777 5777 5776 5776 5776 5776 5775 5775 5774 5774 5773 5772 5771 5770 5768 5767
5757 5759 5760 5761 5762 5763 5764 5765 5766 5767 5769 5770 5771 5772 5773 5774 5774 5775 5775 5775 5775 5775 5774 5774 5773 5772 5772 5771 5771 5771 5770 5770 5769 5769 5769 5768 5768 5767 5766 5765 5763 5762 5761
5750 5752 5753 5754 5755 5757 5758 5759 5760 5761 5763 5764 5765 5766 5767 5767 5768 5768 5769 5769 5769 5768 5768 5767 5766 5766 5766 5765 5765 5765 5764 5763 5763 5762 5762 5762 5761 5760 5760 5758 5757 5755 5754
5744 5745 5746 5748 5749 5750 5752 5753 5754 5755 5756 5758 5759 5760 5761 5761 5761 5762 5762 5762 5762 5762 5761 5760 5760 5759 5759 5759 5758 5758 5757 5756 5756 5755 5755 5755 5754 5754 5753 5751 5750 5749 5747
5737 5738 5739 5741 5742 5743 5745 5746 5748 5749 5750 5751 5753 5753 5754 5754 5755 5755 5755 5755 5755 5754 5753 5753 5752 5752 5752 5752 5752 5751 5750 5750 5749 5749 5748 5748 5747 5746 5746 5744 5743 5742 5741
5729 5731 5732 5733 5734 5736 5738 5739 5741 5742 5743 5745 5746 5746 5747 5748 5748 5748 5748 5748 5748 5747 5746 5745 5744 5745 5745 5745 5745 5744 5744 5743 5743 5742 5741 5741 5740 5740 5739 5738 5736 5735 5734
5721 5722 5724 5725 5727 5728 5730 5731 5732 5734 5735 5737 5738 5739 5739 5740 5740 5741 5741 5741 5740 5740 5739 5738 5737 5737 5737 5738 5738 5738 5738 5737 5736 5736 5735 5734 5734 5733 5733 5732 5730 5729 5728
5712 5713 5715 5716 5718 5719 5721 5723 5724 5726 5727 5728 5729 5730 5731 5732 5732 5733 5733 5733 5733 5732 5732 5731 5731 5730 5731 5731 5731 5731 5731 5730 5730 5729 5729 5728 5728 5727 5727 5726 5724 5723 5722
5703 5704 5705 5707 5709 5710 5712 5714 5715 5717 5719 5719 5721 5722 5723 5723 5724 5724 5725 5725 5725 5725 5725 5725 5724 5724 5724 5724 5724 5724 5724 5724 5723 5722 5722 5722 5721 5721 5720 5719 5718 5717 5716
5694 5695 5696 5697 5699 5701 5703 5705 5706 5708 5710 5711 5712 5713 5714 5714 5715 5716 5716 5717 5718 5718 5718 5718 5717 5717 5717 5717 5717 5717 5717 5717 5716 5716 5715 5715 5714 5714 5713 5712 5711 5710 5709
5685 5685 5687 5688 5690 5692 5694 5695 5697 5699 5700 5701 5703 5704 5704 5705 5706 5707 5708 5709 5709 5710 5710 5710 5710 5710 5710 5710 5710 5710 5709 5709 5709 5708 5708 5708 5707 5707 5706 5704 5703 5703 5702
5676 5676 5678 5679 5681 5683 5685 5687 5688 5690 5691 5693 5694 5695 5696 5697 5698 5699 5700 5700 5701 5701 5702 5702 5702 5702 5702 5702 5702 5702 5702 5702 5701 5701 5701 5700 5700 5699 5698 5697 5696 5695 5694
5667 5668 5670 5671 5673 5675 5676 5678 5680 5681 5682 5683 5685 5686 5687 5688 5689 5690 5691 5692 5692 5693 5693 5693 5693 5694 5694 5694 5694 5694 5694 5694 5694 5694 5693 5693 5693 5692 5690 5689 5688 5687 5686
5659 5660 5662 5663 5665 5667 5668 5670 5671 5673 5674 5675 5676 5677 5678 5679 5680 5681 5682 5682 5683 5683 5684 5684 5685 5685 5685 5686 5686 5686 5686 5686 5686 5686 5685 5685 5684 5683 5682 5681 5681 5680 5679
5652 5653 5654 5656 5657 5659 5661 5662 5664 5665 5666 5667 5668 5669 5670 5671 5671 5672 5672 5673 5673 5674 5674 5675 5675 5676 5676 5676 5677 5677 5677 5677 5677 5677 5677 5676 5676 5675 5674 5673 5673 5672 5671
5644 5646 5647 5649 5650 5652 5653 5655 5656 5657 5658 5659 5660 5661 5661 5662 5662 5663 5663 5663 5664 5664 5664 5665 5665 5666 5666 5667 5667 5667 5667 5668 5667 5667 5667 5667 5666 5666 5665 5665 5664 5664 5663
5637 5639 5640 5642 5643 5645 5646 5647 5648 5649 5651 5651 5652 5652 5653 5653 5653 5654 5654 5654 5654 5655 5655 5655 5656 5656 5656 5656 5657 5657 5657 5657 5657 5657 5657 5657 5657 5657 5656 5656 5656 5655 5655